Regional Weather Roundup
Issued by NWS

Home | Current Version | Previous Version | Text Only | Print | Product List | Glossary On
Versions: 1 2 3 4 5 6 7 8 9 10 11 12 13 14 15 16 17 18 19 20 21 22 23 24 25 26 27 28 29 30 31 32 33 34 35 36 37 38 39 40 41 42 43 44 45 46 47 48 49 50
000
ASUS46 KLOX 240912
RWRCA

SOUTHERN CALIFORNIA WEATHER ROUNDUP
NATIONAL WEATHER SERVICE OXNARD CALIFORNIA
200 AM PDT THU APR 24 2014

NOTE: "FAIR" INDICATES FEW OR NO CLOUDS BELOW 12,000 FEET WITH NO
SIGNIFICANT WEATHER AND/OR OBSTRUCTIONS TO VISIBILITY.

  -  STATIONS PRECEEDED BY AN ASTERISK (*) ARE NOT NWS OR FAA
     STATIONS AND ARE NOT SUBJECT TO NWS AND FAA QUALITY CONTROL.

CAZ041-042-087-241000-
LA AND ORANGE COUNTY COASTAL AREAS


CITY           SKY/WX    TMP DP  RH WIND       PRES   REMARKS
L.A. DOWNTOWN  CLEAR     58  49  72 CALM      29.93F
L.A. AIRPORT   PTCLDY    59  49  69 CALM      29.94F
LONG BEACH     CLEAR     59  46  62 CALM      29.94F

CITY           SKY/WX    TMP DP  RH WIND       PRES   REMARKS
AVALON           N/A     50 N/A N/A S3          N/A
FULLERTON      CLEAR     59  48  67 E3        29.94F
*GETTY CENTER    N/A     59  32  36 N9          N/A
HAWTHORNE      CLEAR     59  48  67 CALM      29.94F
*LEO CARRILLO    N/A     54  38  55 N7          N/A
*LOS ALAMITOS  FAIR      56  52  86 E6        29.94F
*REDONDO BEACH   N/A     54  47  78 CALM      29.92F
SANTA ANA      CLEAR     61  51  70 CALM      29.95S
STA MONICA APT CLEAR     58  48  69 CALM      29.94F
*UCLA            N/A     59  41  51 NE3       29.91S

$$

CAZ547-548-048-241000-
LA COUNTY VALLEYS AND INLAND EMPIRE


CITY           SKY/WX    TMP DP  RH WIND       PRES   REMARKS
BURBANK        CLEAR     57  37  47 CALM      29.93F
VAN NUYS       CLEAR     58  36  43 NW3       29.93F

CITY           SKY/WX    TMP DP  RH WIND       PRES   REMARKS
CORONA AIRPORT SUNNY     49  39  68 CALM        N/A
*CHATSWORTH      N/A     57  40  52 CALM      29.91F
CHINO          CLEAR     54  44  69 NW5       29.96S
MARCH AFB      CLEAR     50  38  62 CALM      29.96S
*NORTHRIDGE      N/A     57  36  44 CALM        N/A
ONTARIO        PTCLDY    57  40  52 W7        29.95S
*PASADENA        N/A     57  46  67 CALM        N/A
RIVERSIDE      CLEAR     57  42  57 SE3       29.95S
SAN BERNARDINO NOT AVBL
*SAN GABRIEL     N/A     57  45  64 CALM      29.91F
*SAN RAFAEL HI   N/A     57  38  50 NW6         N/A
*SAUGUS          N/A     55  26  32 NE6         N/A
*WHITEMAN AP   NOT AVBL
*WHITTIER HILL   N/A     59  43  55 E2          N/A
*WOODLAND HILL   N/A     52  34  50 NW1         N/A

$$

CAZ054-055-241000-
LA AND SAN BERNARDINO COUNTY MOUNTAINS


CITY           SKY/WX    TMP DP  RH WIND       PRES   REMARKS
*BIG BEAR AIRP SUNNY     30  16  55 CALM      30.12S
*CHILAO          N/A     50  24  36 CALM        N/A
MT WILSON NWS    N/A     46  34  61 MISG        N/A
SANDBERG       CLEAR     48  25  40 N9G22     30.06S
*WARM SPRINGS    N/A     51  19  28 W13         N/A

$$

CAZ028-029-059-060-099-241000-
ANTELOPE VALLEY AND SURROUNDING AREAS


CITY           SKY/WX    TMP DP  RH WIND       PRES   REMARKS
LANCASTER      CLEAR     50  27  40 W5        30.01F
PALMDALE       CLEAR     48  24  39 SW6       30.01F
*POPPY PARK      N/A     52  22  31 W17G30      N/A

CITY           SKY/WX    TMP DP  RH WIND       PRES   REMARKS
29 PALMS       PTCLDY    59  26  28 NW5       30.02F
BARSTOW/DAGGET CLEAR     56  26  31 W12       29.97F
BISHOP         CLEAR     43  18  36 N7        30.02R
CHINA LAKE       N/A     54  29  38 S9        29.95F
EDWARDS AFB    CLEAR     49  26  41 SW8       29.98S
MOJAVE         FAIR      54  30  40 W13       30.00S
NEEDLES        CLEAR     65  10  11 SW6       29.89S
VICTORVILLE      N/A     46  21  36 SW5       30.01F

$$

CAZ039-040-241000-
VENTURA AND SANTA BARBARA COUNTY COAST


CITY           SKY/WX    TMP DP  RH WIND       PRES   REMARKS
CAMARILLO      CLEAR     52  46  80 CALM      29.93F
NWS OXNARD       N/A     52  46  78 CALM      29.93S
OXNARD AIRPORT CLEAR     54  46  74 CALM      29.93F
*POINT MUGU    CLEAR     52  47  83 CALM      29.93S
SBA APT/GOLETA CLEAR     54  46  74 CALM      29.93S
*SANTA BARBARA   N/A     59  49  70 CALM      30.01S
*VENTURA         N/A     53  38  56 NE3       29.96S

$$

CAZ044-045-241000-
VENTURA COUNTY VALLEYS


CITY           SKY/WX    TMP DP  RH WIND       PRES   REMARKS
*SIMI VALLEY     N/A     56  29  35 CALM      29.89F
*OJAI            N/A     46  35  66 CALM      29.89S
*FILLMORE        N/A     49  38  66 CALM      29.84F

$$

CAZ053-241000-
VENTURA COUNTY MOUNTAINS


CITY           SKY/WX    TMP DP  RH WIND       PRES   REMARKS
*LOCKWOOD VLY    N/A     28  19  69 MISG        N/A
*ROSE VALLEY     N/A     32  25  74 MISG        N/A

$$

CAZ034-035-036-241000-
CENTRAL COAST AND SANTA YNEZ VALLEY


CITY           SKY/WX    TMP DP  RH WIND       PRES   REMARKS
SAN LUIS OBISP CLEAR     60  40  47 W7        30.04S
SANTA MARIA    CLEAR     49  42  77 NW8       30.02S

CITY           SKY/WX    TMP DP  RH WIND       PRES   REMARKS
*CAL POLY SLO    N/A     59  43  55 W3          N/A
*CAMBRIA         N/A     44  42  91 CALM      29.94R
*LOMPOC        CLEAR     46  43  87 CALM      30.01F
*PISMO BEACH     N/A     61  43  52 NE3       30.02F
*SANTA YNEZ    FAIR      45  39  81 CALM      30.00S

$$

CAZ037-038-051-241000-
SAN LUIS OBISPO COUNTY INTERIOR AND CUYAMA VALLEY


CITY           SKY/WX    TMP DP  RH WIND       PRES   REMARKS
*CUYAMA          N/A     44  27  50 CALM      29.96S
PASO ROBLES    CLEAR     52  41  66 NW13      30.06F

$$

CAZ032-033-061-241000-
SOUTHERN DESERTS


CITY           SKY/WX    TMP DP  RH WIND       PRES   REMARKS
BLYTHE         CLEAR     68  12  11 W3        29.87S
IMPERIAL       CLEAR     62  42  47 W8        29.84S
PALM SPRINGS   CLEAR     68  42  38 NW6       29.88F
THERMAL        CLEAR     66  44  45 CALM      29.83F

$$

ELSEWHERE ACROSS THE WESTERN UNITED STATES AND MEXICO


CITY           SKY/WX    TMP DP  RH WIND       PRES   REMARKS
DENVER, CO     CLOUDY    42  28  57 N15       29.98R WCI  34
GRAND CANYON,  PTCLDY    25   9  50 NE3       30.11S
HONOLULU, HI   PTCLDY    75  64  69 NE16G23   30.11S
KAHULUI, MAUI  CLEAR     73  66  78 NE20      30.11S
LAKE TAHOE, CA PTCLDY    33  27  78 CALM      30.11F
LAS VEGAS, NV  PTCLDY    64  15  15 SW7       29.90F
MAMMOTH LAKES, FAIR      32  23  69 N3        30.11F
MEXICO CITY, M CLEAR     59  43  55 CALM      30.26F
PHOENIX, AZ    CLEAR     72  16  12 N5        29.86S
PORTLAND, OR   LGT RAIN  54  49  83 S26       29.74F
RENO, NV       MOCLDY    50  30  46 S8        30.05F
SALT LAKE CITY PTCLDY    40  23  50 SE9       30.06S WCI  34
SAN DIEGO, CA  PTCLDY    63  51  65 CALM      29.96F
SAN FRANCISCO, PTCLDY    56  52  86 W8        30.09F
SAN JOSE, CA   CLEAR     53  48  83 NW5       30.11S
SEATTLE, WA    LGT RAIN  50  46  86 SE10      29.62F
TIJUANA, MEX   CLEAR     57  50  77 SE7       29.97F

$$

STATION/POSITION TIME  TEMP    WIND        PRES    VSBY  WAVE
                       AIR SEA DIR/SP/G                  HT/PER
                 (UTC) (F)     (DEG/KT/KT) (MB)    (MI)  (FT/S)
POINT ARGUELLO B NOT AVBL
WEST SANTA BARBA 0900   54 54  330/ 23/ 27 1013.9F        10/13
POINT CONCEPTION NOT AVBL
EAST SANTA BARBA NOT AVBL
SANTA MONICA BAY 0900   60 61   40/  4/  4 1013.3F         5/ 7



USA.gov is the U.S. government's official web portal to all federal, state and local government web resources and services.